Weather in Novodanylivka

Ukraine / Zaporizhia Region     47°31′35″N   35°49′00″E
temp.,
°C
wind,
m/s
gust,
m/s
humid.,
%
clouds,
%
prec.,
mm/h
press.,
hPa
HPBL,
m
5 december, sun
sun523:00+1ne71399100 2.1 1011440
02:00+1ne61098100 2.6 1010382
05:00+1nne61095100 0.0 1010422
08:00+1nne4891100 0.0 1012400
11:00+2nne4585100 0.0 1013394
14:00+3nne338172 0.0 1014425
17:00+2ene2290100 0.0 101520
20:00+1ese2394100 0.0 101681
6 december, mon
mon623:000ese229679 0.0 101735
02:000se2295100 0.0 101729
05:00+1se3393100 0.0 101756
08:00+2se3690100 0.0 1018158
11:00+5se51090100 0.4 1017297
14:00+5se4991100 1.1 1017299
17:00+6se61292100 0.0 1017300
20:00+6sse61493100 0.0 1016321
7 december, tue
tue723:00+7sse61394100 0.0 1016276
02:00+8sse61393100 0.0 1015294
05:00+9sse61293100 0.4 1014244
08:00+9sse71385100 0.4 1014261
11:00+11sse61367100 0.0 1013408
14:00+12se61265100 0.0 1011385
17:00+8se51174100 0.0 1010220
20:00+7ese387698 0.0 1009155
8 december, wed
wed823:00+7ese411765 0.0 1008196
02:00+7ese5127738 0.0 1007236
05:00+6ese41283100 0.0 1005249
08:00+7ese51477100 0.0 1005288
11:00+10se71465100 0.0 1005443
14:00+11sse71368100 0.0 1004481
17:00+9se61277100 0.0 1005290
20:00+9se71674100 0.0 1005459
9 december, thu
thu923:00+8se7129396 0.0 1006393
02:00+8s51096100 0.0 1007380
05:00+8s5898100 0.1 1008352
08:00+8ssw5997100 1.1 1010367
11:00+7wsw61189100 0.5 1012593
14:00+7wsw61084100 0.5 1014669
17:00+6sw5983100 0.0 1016562
20:00+5wsw5118743 0.0 1018367